| time (UTC) | temp F | wind direction | speed knots | gust knots | rain 1hr in | rain 24hr in | rain mn in | humidity % | barometer mb |
| 20260510105050 | 52 | 243 | 0.0 | 0.0 | 0.00 | 0.00 | 0.00 | 92 | 1004.9 |
| 20260510104556 | 52 | 243 | 0.0 | 0.0 | 0.00 | 0.00 | 0.00 | 92 | 1004.9 |
| 20260510104049 | 52 | 243 | 0.0 | 0.0 | 0.00 | 0.00 | 0.00 | 92 | 1004.7 |
| 20260510103548 | 51 | 243 | 0.0 | 0.0 | 0.00 | 0.00 | 0.00 | 91 | 1004.7 |
| 20260510103048 | 51 | 243 | 0.0 | 0.0 | 0.00 | 0.00 | 0.00 | 91 | 1004.7 |
| 20260510102548 | 52 | 243 | 0.0 | 0.0 | 0.00 | 0.00 | 0.00 | 91 | 1004.6 |
| 20260510102046 | 52 | 243 | 0.0 | 0.0 | 0.00 | 0.00 | 0.00 | 91 | 1004.5 |
| 20260510101547 | 52 | 243 | 0.0 | 0.0 | 0.00 | 0.00 | 0.00 | 91 | 1004.4 |
| 20260510101043 | 52 | 243 | 0.0 | 0.0 | 0.00 | 0.00 | 0.00 | 91 | 1004.4 |
| 20260510100543 | 52 | 243 | 0.0 | 0.0 | 0.00 | 0.00 | 0.00 | 91 | 1004.4 |
| 20260510100042 | 52 | 243 | 0.0 | 0.0 | 0.00 | 0.00 | 0.00 | 91 | 1004.2 |
| 20260510095542 | 52 | 243 | 0.0 | 0.0 | 0.00 | 0.00 | 0.00 | 91 | 1004.1 |
| 20260510095041 | 52 | 243 | 0.0 | 0.0 | 0.00 | 0.00 | 0.00 | 90 | 1004.1 |
| 20260510094540 | 52 | 243 | 0.0 | 0.0 | 0.00 | 0.00 | 0.00 | 90 | 1004.1 |
| 20260510094039 | 53 | 243 | 0.0 | 0.0 | 0.00 | 0.00 | 0.00 | 91 | 1004.1 |
| 20260510093538 | 53 | 243 | 0.0 | 0.0 | 0.00 | 0.00 | 0.00 | 90 | 1004.0 |
| 20260510093038 | 53 | 243 | 0.0 | 0.0 | 0.00 | 0.00 | 0.00 | 90 | 1003.9 |
| 20260510092538 | 53 | 243 | 0.0 | 0.0 | 0.00 | 0.00 | 0.00 | 90 | 1003.9 |
| 20260510092036 | 53 | 243 | 0.0 | 0.9 | 0.00 | 0.00 | 0.00 | 90 | 1003.9 |
| 20260510091537 | 53 | 243 | 0.0 | 0.9 | 0.00 | 0.00 | 0.00 | 90 | 1003.9 |
| 20260510091035 | 54 | 243 | 0.0 | 0.0 | 0.00 | 0.00 | 0.00 | 90 | 1003.8 |
| 20260510090539 | 54 | 243 | 0.0 | 0.0 | 0.00 | 0.00 | 0.00 | 90 | 1003.8 |
| 20260510090036 | 53 | 243 | 0.0 | 0.0 | 0.00 | 0.00 | 0.00 | 90 | 1003.8 |
| 20260510085534 | 54 | 243 | 0.0 | 0.0 | 0.00 | 0.00 | 0.00 | 89 | 1003.8 |
| 20260510085032 | 54 | 243 | 0.0 | 0.0 | 0.00 | 0.00 | 0.00 | 89 | 1003.7 |
| 20260510084535 | 54 | 243 | 0.0 | 0.9 | 0.00 | 0.00 | 0.00 | 89 | 1003.7 |
| 20260510084031 | 54 | 243 | 0.0 | 0.9 | 0.00 | 0.00 | 0.00 | 89 | 1003.7 |
| 20260510083531 | 54 | 243 | 0.0 | 0.0 | 0.00 | 0.00 | 0.00 | 89 | 1003.7 |
| 20260510083030 | 55 | 242 | 0.0 | 0.0 | 0.00 | 0.00 | 0.00 | 88 | 1003.6 |
| 20260510082528 | 55 | 243 | 0.0 | 0.9 | 0.00 | 0.00 | 0.00 | 88 | 1003.6 |
| 20260510082028 | 55 | 243 | 0.0 | 2.6 | 0.00 | 0.00 | 0.00 | 88 | 1003.6 |
| 20260510081529 | 55 | 242 | 0.0 | 2.6 | 0.00 | 0.00 | 0.00 | 89 | 1003.5 |
| 20260510081026 | 55 | 209 | 0.0 | 0.9 | 0.00 | 0.00 | 0.00 | 89 | 1003.5 |
| 20260510080525 | 56 | 231 | 0.0 | 0.9 | 0.00 | 0.00 | 0.00 | 88 | 1003.4 |
| 20260510080025 | 56 | 231 | 0.0 | 1.7 | 0.00 | 0.00 | 0.00 | 89 | 1003.4 |
| 20260510075524 | 56 | 226 | 0.0 | 1.7 | 0.00 | 0.00 | 0.00 | 89 | 1003.4 |
| 20260510075024 | 55 | 226 | 0.0 | 0.9 | 0.00 | 0.00 | 0.00 | 89 | 1003.3 |
| 20260510074524 | 55 | 231 | 0.0 | 0.0 | 0.00 | 0.00 | 0.00 | 89 | 1003.3 |
| 20260510074022 | 55 | 203 | 0.0 | 0.0 | 0.00 | 0.00 | 0.00 | 88 | 1003.2 |
| 20260510073521 | 55 | 203 | 0.0 | 0.0 | 0.00 | 0.00 | 0.00 | 88 | 1003.1 |
| 20260510073021 | 56 | 203 | 0.0 | 0.0 | 0.00 | 0.00 | 0.00 | 88 | 1003.1 |
| 20260510072522 | 56 | 203 | 0.0 | 0.0 | 0.00 | 0.00 | 0.00 | 88 | 1003.0 |
| 20260510072023 | 56 | 203 | 0.0 | 0.0 | 0.00 | 0.00 | 0.00 | 87 | 1003.0 |
| 20260510071521 | 56 | 203 | 0.0 | 0.0 | 0.00 | 0.00 | 0.00 | 87 | 1003.1 |
| 20260510071019 | 56 | 203 | 0.0 | 0.0 | 0.00 | 0.00 | 0.00 | 86 | 1003.2 |
| 20260510070518 | 56 | 196 | 0.0 | 0.0 | 0.00 | 0.00 | 0.00 | 86 | 1003.2 |
| 20260510070018 | 57 | 196 | 0.0 | 0.0 | 0.00 | 0.00 | 0.00 | 86 | 1003.2 |
| 20260510065516 | 57 | 203 | 0.0 | 0.0 | 0.00 | 0.00 | 0.00 | 86 | 1003.2 |
| 20260510065019 | 57 | 205 | 0.0 | 0.9 | 0.00 | 0.00 | 0.00 | 86 | 1003.0 |
| 20260510064527 | 57 | 195 | 0.0 | 0.9 | 0.00 | 0.00 | 0.00 | 85 | 1003.1 |
| 20260510064014 | 57 | 233 | 0.0 | 0.9 | 0.00 | 0.00 | 0.00 | 84 | 1003.0 |
| 20260510063516 | 58 | 233 | 0.0 | 1.7 | 0.00 | 0.00 | 0.00 | 85 | 1003.1 |
| 20260510063014 | 57 | 234 | 0.0 | 2.6 | 0.00 | 0.00 | 0.00 | 86 | 1003.2 |
| 20260510062513 | 57 | 221 | 0.0 | 0.9 | 0.00 | 0.00 | 0.00 | 86 | 1003.2 |
| 20260510062012 | 57 | 204 | 0.0 | 0.9 | 0.00 | 0.00 | 0.00 | 85 | 1003.0 |
| 20260510061519 | 57 | 218 | 0.0 | 0.9 | 0.00 | 0.00 | 0.00 | 85 | 1002.9 |
| 20260510061011 | 57 | 218 | 0.0 | 0.9 | 0.00 | 0.00 | 0.00 | 85 | 1003.0 |
| 20260510060510 | 57 | 242 | 0.0 | 0.0 | 0.00 | 0.00 | 0.00 | 84 | 1002.9 |
| 20260510060010 | 57 | 242 | 0.0 | 0.0 | 0.00 | 0.00 | 0.00 | 84 | 1002.8 |
| 20260510055509 | 57 | 242 | 0.0 | 0.0 | 0.00 | 0.00 | 0.00 | 83 | 1002.8 |
| 20260510055008 | 58 | 242 | 0.0 | 0.0 | 0.00 | 0.00 | 0.00 | 82 | 1002.9 |
| 20260510054507 | 58 | 242 | 0.0 | 0.0 | 0.00 | 0.00 | 0.00 | 83 | 1003.0 |
| 20260510054008 | 58 | 242 | 0.0 | 0.0 | 0.00 | 0.00 | 0.00 | 82 | 1003.0 |
| 20260510053506 | 59 | 242 | 0.0 | 0.0 | 0.00 | 0.00 | 0.00 | 82 | 1003.0 |
| 20260510053014 | 59 | 242 | 0.0 | 0.9 | 0.00 | 0.00 | 0.00 | 81 | 1002.9 |
| 20260510052503 | 59 | 242 | 0.0 | 0.9 | 0.00 | 0.00 | 0.00 | 81 | 1003.0 |
| 20260510052002 | 59 | 242 | 0.0 | 0.9 | 0.00 | 0.00 | 0.00 | 80 | 1003.0 |
| 20260510051506 | 59 | 242 | 0.0 | 0.9 | 0.00 | 0.00 | 0.00 | 81 | 1003.0 |
| 20260510051001 | 59 | 242 | 0.0 | 1.7 | 0.00 | 0.00 | 0.00 | 81 | 1002.9 |
| 20260510050600 | 59 | 245 | 0.0 | 1.7 | 0.00 | 0.00 | 0.00 | 81 | 1002.9 |
| 20260510050104 | 59 | 237 | 0.0 | 0.9 | 0.00 | 0.00 | 0.00 | 80 | 1003.0 |
| 20260510045559 | 59 | 237 | 0.0 | 0.9 | 0.00 | 0.00 | 0.00 | 80 | 1002.9 |
| 20260510045058 | 60 | 237 | 0.0 | 0.9 | 0.00 | 0.00 | 0.00 | 79 | 1003.0 |
| 20260510044557 | 60 | 237 | 0.0 | 0.0 | 0.00 | 0.00 | 0.00 | 79 | 1003.0 |
| 20260510044056 | 60 | 237 | 0.0 | 0.9 | 0.00 | 0.00 | 0.00 | 78 | 1003.0 |
| 20260510043557 | 60 | 237 | 0.0 | 0.9 | 0.00 | 0.00 | 0.00 | 78 | 1003.0 |
| 20260510043055 | 61 | 237 | 0.0 | 0.9 | 0.00 | 0.00 | 0.00 | 78 | 1003.1 |
| 20260510042553 | 61 | 237 | 0.0 | 0.9 | 0.00 | 0.00 | 0.00 | 77 | 1003.0 |
| 20260510042053 | 61 | 243 | 0.0 | 0.0 | 0.00 | 0.00 | 0.00 | 77 | 1003.1 |
| 20260510041553 | 61 | 217 | 0.0 | 0.0 | 0.00 | 0.00 | 0.00 | 77 | 1002.9 |
| 20260510041052 | 61 | 217 | 0.0 | 0.0 | 0.00 | 0.00 | 0.00 | 76 | 1003.0 |
| 20260510040551 | 61 | 217 | 0.0 | 0.0 | 0.00 | 0.00 | 0.00 | 76 | 1002.9 |
| 20260510040049 | 61 | 217 | 0.0 | 0.9 | 0.00 | 0.00 | 0.00 | 76 | 1003.0 |
| 20260510035548 | 61 | 217 | 0.0 | 0.9 | 0.00 | 0.00 | 0.00 | 76 | 1002.9 |
| 20260510035048 | 62 | 217 | 0.0 | 0.9 | 0.00 | 0.00 | 0.00 | 75 | 1002.9 |
| 20260510034550 | 62 | 218 | 0.0 | 0.9 | 0.00 | 0.00 | 0.00 | 75 | 1002.9 |
| 20260510034048 | 62 | 224 | 0.0 | 0.9 | 0.00 | 0.00 | 0.00 | 75 | 1002.8 |
| 20260510033549 | 62 | 224 | 0.0 | 0.0 | 0.00 | 0.00 | 0.00 | 74 | 1002.8 |
| 20260510033056 | 62 | 224 | 0.0 | 0.9 | 0.00 | 0.00 | 0.00 | 75 | 1002.6 |
| 20260510032547 | 62 | 204 | 0.0 | 0.9 | 0.00 | 0.00 | 0.00 | 75 | 1002.7 |
| 20260510032048 | 61 | 189 | 0.0 | 0.0 | 0.00 | 0.00 | 0.00 | 75 | 1002.6 |
| 20260510031548 | 61 | 189 | 0.0 | 0.0 | 0.00 | 0.00 | 0.00 | 75 | 1002.6 |
| 20260510031048 | 61 | 189 | 0.0 | 0.0 | 0.00 | 0.00 | 0.00 | 75 | 1002.6 |
| 20260510030546 | 61 | 189 | 0.0 | 0.0 | 0.00 | 0.00 | 0.00 | 75 | 1002.6 |
| 20260510030046 | 61 | 189 | 0.0 | 0.0 | 0.00 | 0.00 | 0.00 | 74 | 1002.5 |
| 20260510025547 | 62 | 189 | 0.0 | 0.0 | 0.00 | 0.00 | 0.00 | 74 | 1002.6 |
| 20260510025046 | 62 | 189 | 0.0 | 0.0 | 0.00 | 0.00 | 0.00 | 73 | 1002.5 |
| 20260510024546 | 62 | 189 | 0.0 | 0.0 | 0.00 | 0.00 | 0.00 | 73 | 1002.4 |
| 20260510024046 | 62 | 189 | 0.0 | 0.0 | 0.00 | 0.00 | 0.00 | 73 | 1002.3 |
| 20260510023545 | 63 | 189 | 0.0 | 0.0 | 0.00 | 0.00 | 0.00 | 72 | 1002.4 |
| 20260510023046 | 63 | 189 | 0.0 | 0.0 | 0.00 | 0.00 | 0.00 | 71 | 1002.3 |
| 20260510022545 | 63 | 189 | 0.0 | 0.9 | 0.00 | 0.00 | 0.00 | 71 | 1002.3 |
| 20260510022044 | 64 | 189 | 0.0 | 0.9 | 0.00 | 0.00 | 0.00 | 70 | 1002.2 |
| 20260510021547 | 64 | 204 | 0.0 | 0.0 | 0.00 | 0.00 | 0.00 | 70 | 1002.1 |
| 20260510021045 | 64 | 199 | 0.0 | 0.0 | 0.00 | 0.00 | 0.00 | 69 | 1002.1 |
| 20260510020545 | 65 | 199 | 0.0 | 1.7 | 0.00 | 0.00 | 0.00 | 69 | 1002.1 |
| 20260510020045 | 65 | 200 | 0.0 | 1.7 | 0.00 | 0.00 | 0.00 | 69 | 1002.0 |
| 20260510015546 | 65 | 207 | 0.0 | 1.7 | 0.00 | 0.00 | 0.00 | 69 | 1002.0 |
| 20260510015044 | 65 | 200 | 0.0 | 1.7 | 0.00 | 0.00 | 0.00 | 69 | 1001.9 |
| 20260510014545 | 65 | 200 | 0.0 | 0.9 | 0.00 | 0.00 | 0.00 | 69 | 1001.8 |
| 20260510014045 | 65 | 210 | 0.0 | 1.7 | 0.00 | 0.00 | 0.00 | 69 | 1001.8 |
| 20260510013543 | 65 | 203 | 0.0 | 1.7 | 0.00 | 0.00 | 0.00 | 68 | 1001.8 |
| 20260510013045 | 65 | 212 | 0.0 | 0.0 | 0.00 | 0.00 | 0.00 | 68 | 1001.6 |
| 20260510012545 | 65 | 212 | 0.0 | 0.9 | 0.00 | 0.00 | 0.00 | 68 | 1001.6 |
| 20260510012047 | 65 | 211 | 0.0 | 0.9 | 0.00 | 0.00 | 0.00 | 67 | 1001.5 |
| 20260510011544 | 66 | 213 | 0.0 | 0.9 | 0.00 | 0.00 | 0.00 | 67 | 1001.5 |
| 20260510011043 | 66 | 213 | 0.0 | 0.9 | 0.00 | 0.00 | 0.00 | 67 | 1001.4 |
| 20260510010542 | 66 | 213 | 0.0 | 0.9 | 0.00 | 0.00 | 0.00 | 66 | 1001.4 |
| 20260510010043 | 67 | 221 | 0.0 | 0.9 | 0.00 | 0.00 | 0.00 | 66 | 1001.5 |
| 20260510005543 | 67 | 224 | 0.0 | 0.9 | 0.00 | 0.00 | 0.00 | 65 | 1001.4 |
| 20260510005042 | 67 | 174 | 0.0 | 0.9 | 0.00 | 0.00 | 0.00 | 65 | 1001.2 |
| 20260510004543 | 67 | 207 | 0.0 | 0.9 | 0.00 | 0.00 | 0.00 | 65 | 1001.2 |
| 20260510004042 | 68 | 209 | 0.0 | 0.9 | 0.00 | 0.00 | 0.00 | 64 | 1001.1 |
| 20260510003543 | 68 | 172 | 0.0 | 0.0 | 0.00 | 0.00 | 0.00 | 64 | 1000.9 |
| 20260510003055 | 68 | 173 | 0.0 | 0.9 | 0.00 | 0.00 | 0.00 | 63 | 1000.9 |
| 20260510002542 | 69 | 142 | 0.0 | 0.9 | 0.00 | 0.00 | 0.00 | 62 | 1000.9 |
| 20260510002042 | 70 | 142 | 0.0 | 0.9 | 0.00 | 0.00 | 0.00 | 61 | 1000.9 |
| 20260510001542 | 70 | 203 | 0.0 | 0.0 | 0.00 | 0.00 | 0.00 | 60 | 1000.8 |
| 20260510001043 | 71 | 203 | 0.0 | 0.9 | 0.00 | 0.00 | 0.00 | 59 | 1000.8 |
| 20260510000545 | 71 | 203 | 0.0 | 0.9 | 0.00 | 0.00 | 0.00 | 58 | 1000.9 |
| 20260510000043 | 72 | 200 | 0.0 | 1.7 | 0.00 | 0.00 | 0.00 | 57 | 1000.8 |
| 20260509235540 | 73 | 206 | 0.0 | 1.7 | 0.00 | 0.00 | 0.00 | 56 | 1000.7 |
| 20260509235041 | 73 | 166 | 0.0 | 2.6 | 0.00 | 0.00 | 0.00 | 55 | 1000.7 |
| 20260509234544 | 74 | 207 | 0.9 | 2.6 | 0.00 | 0.00 | 0.00 | 54 | 1000.6 |
| 20260509234039 | 74 | 228 | 0.0 | 2.6 | 0.00 | 0.00 | 0.00 | 54 | 1000.7 |
| 20260509233544 | 75 | 225 | 0.9 | 4.3 | 0.00 | 0.00 | 0.00 | 53 | 1000.7 |
| 20260509233040 | 75 | 238 | 0.9 | 3.5 | 0.00 | 0.00 | 0.00 | 53 | 1000.6 |
| 20260509232544 | 75 | 209 | 0.9 | 4.3 | 0.00 | 0.00 | 0.00 | 52 | 1000.5 |
| 20260509232040 | 75 | 235 | 1.7 | 3.5 | 0.00 | 0.00 | 0.00 | 52 | 1000.6 |
| 20260509231540 | 75 | 212 | 0.9 | 4.3 | 0.00 | 0.00 | 0.00 | 52 | 1000.6 |
| 20260509231038 | 75 | 191 | 1.7 | 7.8 | 0.00 | 0.00 | 0.00 | 52 | 1000.6 |
| 20260509230538 | 75 | 243 | 2.6 | 7.8 | 0.00 | 0.00 | 0.00 | 52 | 1000.5 |
| 20260509230047 | 75 | 206 | 3.5 | 6.1 | 0.00 | 0.00 | 0.00 | 51 | 1000.6 |
| 20260509225539 | 76 | 224 | 2.6 | 6.1 | 0.00 | 0.00 | 0.00 | 52 | 1000.5 |
| 20260509225037 | 76 | 139 | 1.7 | 6.1 | 0.00 | 0.00 | 0.00 | 52 | 1000.4 |
| 20260509224547 | 75 | 221 | 2.6 | 7.0 | 0.00 | 0.00 | 0.00 | 52 | 1000.4 |
| 20260509224041 | 75 | 224 | 2.6 | 7.0 | 0.00 | 0.00 | 0.00 | 52 | 1000.4 |
| 20260509223536 | 75 | 231 | 3.5 | 7.0 | 0.00 | 0.00 | 0.00 | 52 | 1000.4 |
| 20260509223041 | 75 | 176 | 0.9 | 5.2 | 0.00 | 0.00 | 0.00 | 52 | 1000.4 |
| 20260509222536 | 75 | 236 | 1.7 | 7.0 | 0.00 | 0.00 | 0.00 | 52 | 1000.4 |
| 20260509222036 | 75 | 234 | 2.6 | 9.6 | 0.00 | 0.00 | 0.00 | 52 | 1000.6 |
| 20260509221536 | 75 | 233 | 4.3 | 9.6 | 0.00 | 0.00 | 0.00 | 52 | 1000.6 |
| 20260509221036 | 75 | 250 | 1.7 | 4.3 | 0.00 | 0.00 | 0.00 | 53 | 1000.6 |
| 20260509220635 | 75 | 232 | 0.9 | 6.1 | 0.00 | 0.00 | 0.00 | 53 | 1000.6 |
| 20260509220036 | 75 | 235 | 1.7 | 7.0 | 0.00 | 0.00 | 0.00 | 53 | 1000.6 |
| 20260509215533 | 75 | 238 | 0.9 | 4.3 | 0.00 | 0.00 | 0.00 | 52 | 1000.5 |
| 20260509215033 | 75 | 234 | 0.9 | 10.4 | 0.00 | 0.00 | 0.00 | 52 | 1000.6 |
| 20260509214532 | 75 | 219 | 6.1 | 10.4 | 0.00 | 0.00 | 0.00 | 52 | 1000.6 |
| 20260509214034 | 75 | 223 | 3.5 | 8.7 | 0.00 | 0.00 | 0.00 | 51 | 1000.7 |
| 20260509213531 | 75 | 212 | 2.6 | 10.4 | 0.00 | 0.00 | 0.00 | 51 | 1000.6 |
| 20260509213030 | 76 | 201 | 4.3 | 9.6 | 0.00 | 0.00 | 0.00 | 51 | 1000.5 |
| 20260509212529 | 76 | 217 | 1.7 | 9.6 | 0.00 | 0.00 | 0.00 | 52 | 1000.4 |
| 20260509212033 | 76 | 196 | 2.6 | 7.0 | 0.00 | 0.00 | 0.00 | 51 | 1000.5 |
| 20260509211529 | 75 | 225 | 1.7 | 7.0 | 0.00 | 0.00 | 0.00 | 52 | 1000.4 |
| 20260509211029 | 76 | 210 | 2.6 | 10.4 | 0.00 | 0.00 | 0.00 | 51 | 1000.3 |
| 20260509210529 | 76 | 233 | 3.5 | 10.4 | 0.00 | 0.00 | 0.00 | 52 | 1000.3 |
| 20260509210028 | 76 | 261 | 2.6 | 10.4 | 0.00 | 0.00 | 0.00 | 52 | 1000.3 |
| 20260509205528 | 76 | 221 | 4.3 | 11.3 | 0.00 | 0.00 | 0.00 | 51 | 1000.3 |
| 20260509205028 | 76 | 170 | 2.6 | 11.3 | 0.00 | 0.00 | 0.00 | 53 | 1000.3 |
| 20260509204528 | 75 | 214 | 5.2 | 11.3 | 0.00 | 0.00 | 0.00 | 52 | 1000.2 |
| 20260509204028 | 76 | 203 | 4.3 | 11.3 | 0.00 | 0.00 | 0.00 | 53 | 1000.1 |
| 20260509203528 | 76 | 217 | 5.2 | 11.3 | 0.00 | 0.00 | 0.00 | 52 | 1000.2 |
| 20260509203034 | 76 | 231 | 3.5 | 9.6 | 0.00 | 0.00 | 0.00 | 52 | 1000.3 |
| 20260509202527 | 76 | 232 | 3.5 | 9.6 | 0.00 | 0.00 | 0.00 | 53 | 1000.3 |
| 20260509202026 | 76 | 207 | 3.5 | 11.3 | 0.00 | 0.00 | 0.00 | 53 | 1000.3 |
| 20260509201526 | 75 | 222 | 5.2 | 13.0 | 0.00 | 0.00 | 0.00 | 54 | 1000.4 |
| 20260509201028 | 75 | 218 | 4.3 | 13.0 | 0.00 | 0.00 | 0.00 | 55 | 1000.5 |
| 20260509200524 | 76 | 207 | 2.6 | 13.0 | 0.00 | 0.00 | 0.00 | 54 | 1000.4 |
| 20260509200024 | 76 | 220 | 1.7 | 13.0 | 0.00 | 0.00 | 0.00 | 55 | 1000.6 |
| 20260509195523 | 75 | 175 | 4.3 | 11.3 | 0.00 | 0.00 | 0.00 | 54 | 1000.7 |
| 20260509195022 | 75 | 234 | 3.5 | 11.3 | 0.00 | 0.00 | 0.00 | 56 | 1000.7 |
| 20260509194526 | 75 | 156 | 1.7 | 10.4 | 0.00 | 0.00 | 0.00 | 57 | 1000.9 |
| 20260509194020 | 74 | 230 | 4.3 | 10.4 | 0.00 | 0.00 | 0.00 | 56 | 1000.9 |
| 20260509193521 | 74 | 236 | 5.2 | 10.4 | 0.00 | 0.00 | 0.00 | 56 | 1000.9 |
| 20260509193019 | 74 | 269 | 2.6 | 7.0 | 0.00 | 0.00 | 0.00 | 59 | 1001.1 |
| 20260509192517 | 73 | 218 | 2.6 | 7.0 | 0.00 | 0.00 | 0.00 | 60 | 1001.2 |
| 20260509192018 | 71 | 257 | 0.9 | 5.2 | 0.00 | 0.00 | 0.00 | 61 | 1001.4 |
| 20260509191515 | 71 | 243 | 1.7 | 7.0 | 0.00 | 0.00 | 0.00 | 61 | 1001.6 |
| 20260509191014 | 71 | 229 | 2.6 | 7.8 | 0.00 | 0.00 | 0.00 | 61 | 1001.7 |
| 20260509190513 | 71 | 238 | 3.5 | 9.6 | 0.00 | 0.00 | 0.00 | 61 | 1001.7 |
| 20260509190013 | 71 | 226 | 4.3 | 8.7 | 0.00 | 0.00 | 0.00 | 60 | 1001.8 |
| 20260509185512 | 72 | 233 | 5.2 | 9.6 | 0.00 | 0.00 | 0.00 | 60 | 1001.8 |
| 20260509185012 | 72 | 235 | 5.2 | 10.4 | 0.00 | 0.00 | 0.00 | 60 | 1001.9 |
| 20260509184522 | 72 | 236 | 2.6 | 8.7 | 0.00 | 0.00 | 0.00 | 62 | 1001.9 |
| 20260509184010 | 71 | 237 | 4.3 | 8.7 | 0.00 | 0.00 | 0.00 | 62 | 1001.9 |
| 20260509183510 | 71 | 228 | 1.7 | 7.0 | 0.00 | 0.00 | 0.00 | 62 | 1002.0 |
| 20260509183010 | 71 | 244 | 1.7 | 7.8 | 0.00 | 0.00 | 0.00 | 62 | 1002.1 |
| 20260509182510 | 71 | 244 | 2.6 | 7.8 | 0.00 | 0.00 | 0.00 | 61 | 1002.1 |
| 20260509182010 | 71 | 309 | 1.7 | 11.3 | 0.00 | 0.00 | 0.00 | 62 | 1002.1 |
| 20260509181509 | 71 | 247 | 4.3 | 11.3 | 0.00 | 0.00 | 0.00 | 60 | 1002.2 |
| 20260509181008 | 72 | 214 | 1.7 | 10.4 | 0.00 | 0.00 | 0.00 | 61 | 1002.2 |
| 20260509180511 | 71 | 253 | 3.5 | 10.4 | 0.00 | 0.00 | 0.00 | 60 | 1002.2 |
| 20260509180007 | 71 | 205 | 4.3 | 9.6 | 0.00 | 0.00 | 0.00 | 60 | 1002.3 |
| 20260509175506 | 71 | 220 | 2.6 | 11.3 | 0.00 | 0.00 | 0.00 | 60 | 1002.2 |
| 20260509175005 | 71 | 200 | 6.1 | 11.3 | 0.00 | 0.00 | 0.00 | 60 | 1002.4 |
| 20260509174506 | 71 | 234 | 5.2 | 9.6 | 0.00 | 0.00 | 0.00 | 60 | 1002.4 |
| 20260509174004 | 71 | 223 | 1.7 | 8.7 | 0.00 | 0.00 | 0.00 | 61 | 1002.4 |
| 20260509173508 | 71 | 186 | 4.3 | 13.0 | 0.00 | 0.00 | 0.00 | 60 | 1002.4 |
| 20260509173004 | 71 | 224 | 7.0 | 13.0 | 0.00 | 0.00 | 0.00 | 60 | 1002.5 |
| 20260509172505 | 71 | 230 | 4.3 | 11.3 | 0.00 | 0.00 | 0.00 | 61 | 1002.5 |
| 20260509172003 | 71 | 230 | 6.1 | 12.2 | 0.00 | 0.00 | 0.00 | 61 | 1002.6 |
| 20260509171501 | 70 | 231 | 6.1 | 12.2 | 0.00 | 0.00 | 0.00 | 61 | 1002.7 |
| 20260509171059 | 70 | 252 | 3.5 | 8.7 | 0.00 | 0.00 | 0.00 | 63 | 1002.7 |
| 20260509170559 | 69 | 209 | 4.3 | 7.8 | 0.00 | 0.00 | 0.00 | 62 | 1002.8 |
| 20260509170059 | 69 | 229 | 3.5 | 7.8 | 0.00 | 0.00 | 0.00 | 62 | 1002.8 |
| 20260509165558 | 69 | 187 | 2.6 | 10.4 | 0.00 | 0.00 | 0.00 | 62 | 1002.8 |
| 20260509165058 | 69 | 229 | 3.5 | 12.2 | 0.00 | 0.00 | 0.00 | 61 | 1002.8 |
| 20260509164558 | 69 | 230 | 5.2 | 12.2 | 0.00 | 0.00 | 0.00 | 61 | 1002.9 |
| 20260509164058 | 69 | 234 | 7.0 | 12.2 | 0.00 | 0.00 | 0.00 | 61 | 1002.9 |
| 20260509163557 | 69 | 197 | 6.1 | 12.2 | 0.00 | 0.00 | 0.00 | 61 | 1002.9 |
| 20260509163056 | 69 | 229 | 7.0 | 12.2 | 0.00 | 0.00 | 0.00 | 60 | 1002.8 |
| 20260509162555 | 69 | 185 | 4.3 | 11.3 | 0.00 | 0.00 | 0.00 | 60 | 1002.9 |
| 20260509162055 | 69 | 188 | 6.1 | 11.3 | 0.00 | 0.00 | 0.00 | 60 | 1003.0 |
| 20260509161601 | 69 | 243 | 4.3 | 10.4 | 0.00 | 0.00 | 0.00 | 60 | 1002.9 |
| 20260509161051 | 69 | 228 | 3.5 | 13.9 | 0.00 | 0.00 | 0.00 | 61 | 1002.9 |
| 20260509160551 | 69 | 224 | 5.2 | 13.9 | 0.00 | 0.00 | 0.00 | 60 | 1002.9 |
| 20260509160051 | 69 | 244 | 6.1 | 14.8 | 0.00 | 0.00 | 0.00 | 60 | 1002.9 |
| 20260509155549 | 69 | 212 | 7.0 | 18.2 | 0.00 | 0.00 | 0.00 | 60 | 1002.9 |
| 20260509155049 | 69 | 248 | 10.4 | 18.2 | 0.00 | 0.00 | 0.00 | 58 | 1002.9 |
| 20260509154556 | 69 | 231 | 7.8 | 15.6 | 0.00 | 0.00 | 0.00 | 59 | 1003.2 |
| 20260509154049 | 69 | 217 | 7.0 | 13.9 | 0.00 | 0.00 | 0.00 | 60 | 1003.0 |
| 20260509153552 | 69 | 212 | 5.2 | 11.3 | 0.00 | 0.00 | 0.00 | 61 | 1003.2 |
| 20260509153056 | 69 | 167 | 5.2 | 14.8 | 0.00 | 0.00 | 0.00 | 62 | 1003.4 |
| 20260509152548 | 68 | 243 | 6.1 | 14.8 | 0.00 | 0.00 | 0.00 | 61 | 1003.4 |
| 20260509152048 | 69 | 248 | 6.1 | 10.4 | 0.00 | 0.00 | 0.00 | 62 | 1003.3 |
| 20260509151557 | 69 | 231 | 5.2 | 13.0 | 0.00 | 0.00 | 0.00 | 62 | 1003.3 |
| 20260509151045 | 68 | 245 | 7.0 | 16.5 | 0.00 | 0.00 | 0.00 | 62 | 1003.2 |
| 20260509150548 | 68 | 235 | 6.1 | 16.5 | 0.00 | 0.00 | 0.00 | 62 | 1003.2 |
| 20260509150044 | 68 | 155 | 7.0 | 12.2 | 0.00 | 0.00 | 0.00 | 62 | 1003.4 |
| 20260509145543 | 68 | 184 | 5.2 | 10.4 | 0.00 | 0.00 | 0.00 | 62 | 1003.4 |
| 20260509145045 | 68 | 143 | 2.6 | 9.6 | 0.00 | 0.00 | 0.00 | 64 | 1003.5 |
| 20260509144539 | 67 | 218 | 3.5 | 9.6 | 0.00 | 0.00 | 0.00 | 64 | 1003.6 |
| 20260509144038 | 66 | 203 | 4.3 | 8.7 | 0.00 | 0.00 | 0.00 | 65 | 1003.6 |
| 20260509143537 | 66 | 231 | 4.3 | 11.3 | 0.00 | 0.00 | 0.00 | 64 | 1003.8 |
| 20260509143041 | 66 | 172 | 5.2 | 14.8 | 0.00 | 0.00 | 0.00 | 65 | 1004.0 |
| 20260509142535 | 65 | 249 | 4.3 | 14.8 | 0.00 | 0.00 | 0.00 | 67 | 1004.0 |
| 20260509142033 | 65 | 213 | 2.6 | 8.7 | 0.00 | 0.00 | 0.00 | 67 | 1004.0 |
| 20260509141541 | 64 | 233 | 3.5 | 8.7 | 0.00 | 0.00 | 0.00 | 67 | 1004.0 |
| 20260509141031 | 64 | 159 | 4.3 | 11.3 | 0.00 | 0.00 | 0.00 | 68 | 1004.1 |
| 20260509140529 | 64 | 232 | 5.2 | 9.6 | 0.00 | 0.00 | 0.00 | 68 | 1004.1 |
| 20260509140028 | 63 | 186 | 4.3 | 10.4 | 0.00 | 0.00 | 0.00 | 68 | 1004.1 |
| 20260509135531 | 63 | 232 | 4.3 | 10.4 | 0.00 | 0.00 | 0.00 | 69 | 1004.2 |
| 20260509135026 | 63 | 180 | 4.3 | 11.3 | 0.00 | 0.00 | 0.00 | 69 | 1004.3 |
| 20260509134531 | 62 | 247 | 4.3 | 11.3 | 0.00 | 0.00 | 0.00 | 70 | 1004.2 |
| 20260509134028 | 62 | 235 | 4.3 | 11.3 | 0.00 | 0.00 | 0.00 | 70 | 1004.2 |
| 20260509133524 | 62 | 226 | 4.3 | 10.4 | 0.00 | 0.00 | 0.00 | 71 | 1004.1 |
| 20260509133023 | 61 | 200 | 4.3 | 10.4 | 0.00 | 0.00 | 0.00 | 71 | 1004.2 |
| 20260509132522 | 61 | 207 | 5.2 | 11.3 | 0.00 | 0.00 | 0.00 | 71 | 1004.2 |
| 20260509132021 | 60 | 203 | 4.3 | 11.3 | 0.00 | 0.00 | 0.00 | 72 | 1004.2 |
| 20260509131526 | 60 | 217 | 2.6 | 7.8 | 0.00 | 0.00 | 0.00 | 73 | 1004.2 |
| 20260509131017 | 59 | 194 | 4.3 | 7.8 | 0.00 | 0.00 | 0.00 | 73 | 1004.2 |
| 20260509130516 | 59 | 217 | 3.5 | 7.8 | 0.00 | 0.00 | 0.00 | 73 | 1004.3 |
| 20260509130018 | 59 | 214 | 3.5 | 7.8 | 0.00 | 0.00 | 0.00 | 74 | 1004.2 |
| 20260509125517 | 58 | 219 | 2.6 | 9.6 | 0.00 | 0.00 | 0.00 | 75 | 1004.4 |
| 20260509125012 | 58 | 227 | 6.1 | 9.6 | 0.00 | 0.00 | 0.00 | 75 | 1004.4 |
| 20260509124516 | 58 | 193 | 4.3 | 9.6 | 0.00 | 0.00 | 0.00 | 75 | 1004.5 |
| 20260509124011 | 57 | 195 | 2.6 | 8.7 | 0.00 | 0.00 | 0.00 | 75 | 1004.5 |
| 20260509123511 | 57 | 248 | 3.5 | 10.4 | 0.00 | 0.00 | 0.00 | 75 | 1004.5 |
| 20260509123014 | 57 | 141 | 3.5 | 10.4 | 0.00 | 0.00 | 0.00 | 75 | 1004.5 |
| 20260509122510 | 57 | 175 | 2.6 | 10.4 | 0.00 | 0.00 | 0.00 | 75 | 1004.5 |
| 20260509122010 | 57 | 211 | 3.5 | 8.7 | 0.00 | 0.00 | 0.00 | 76 | 1004.4 |
| 20260509121509 | 56 | 229 | 3.5 | 7.8 | 0.00 | 0.00 | 0.00 | 76 | 1004.5 |
| 20260509121009 | 56 | 199 | 3.5 | 8.7 | 0.00 | 0.00 | 0.00 | 76 | 1004.6 |
| 20260509120510 | 56 | 197 | 2.6 | 8.7 | 0.00 | 0.00 | 0.00 | 76 | 1004.6 |
| 20260509120018 | 56 | 218 | 5.2 | 8.7 | 0.00 | 0.00 | 0.00 | 76 | 1004.5 |
| 20260509115509 | 56 | 222 | 3.5 | 7.8 | 0.00 | 0.00 | 0.00 | 76 | 1004.7 |
| 20260509115009 | 56 | 204 | 2.6 | 8.7 | 0.00 | 0.00 | 0.00 | 76 | 1004.6 |
| 20260509114509 | 55 | 221 | 4.3 | 8.7 | 0.00 | 0.00 | 0.00 | 76 | 1004.6 |
| 20260509114013 | 55 | 195 | 2.6 | 8.7 | 0.00 | 0.00 | 0.00 | 77 | 1004.5 |
| 20260509113509 | 55 | 198 | 3.5 | 7.8 | 0.00 | 0.00 | 0.00 | 77 | 1004.4 |
| 20260509113008 | 54 | 194 | 4.3 | 7.8 | 0.00 | 0.00 | 0.00 | 77 | 1004.5 |
| 20260509112507 | 54 | 224 | 3.5 | 9.6 | 0.00 | 0.00 | 0.00 | 77 | 1004.5 |
| 20260509112010 | 54 | 231 | 4.3 | 9.6 | 0.00 | 0.00 | 0.00 | 77 | 1004.5 |
| 20260509111512 | 53 | 207 | 3.5 | 8.7 | 0.00 | 0.00 | 0.00 | 77 | 1004.5 |
| 20260509111006 | 53 | 162 | 3.5 | 8.7 | 0.00 | 0.00 | 0.00 | 77 | 1004.4 |
| 20260509110507 | 53 | 162 | 2.6 | 7.0 | 0.00 | 0.00 | 0.00 | 77 | 1004.5 |
| 20260509110005 | 53 | 174 | 1.7 | 6.1 | 0.00 | 0.00 | 0.00 | 77 | 1004.4 |
| 20260509105510 | 53 | 207 | 3.5 | 7.0 | 0.00 | 0.00 | 0.00 | 77 | 1004.3 |